Weather History for KLUX - May, 2013

Change the Weather History Date:

Saturday, May 11, 2013

  Actual Average (KGSP) Record (KGSP)
Temperature  
Mean Temperature 70 °F 67 °F  
Max Temperature 78 °F 79 °F 96 °F (1889)
Min Temperature 62 °F 56 °F 33 °F (1906)
Degree Days  
Heating Degree Days 0 1  
Month to date heating degree days 24  
Since 1 July heating degree days 3030  
Cooling Degree Days 5 4  
Month to date cooling degree days 33  
Year to date cooling degree days 81  
Growing Degree Days 20 (Base 50)    
Moisture  
Dew Point 63 °F    
Average Humidity 84    
Maximum Humidity 100    
Minimum Humidity 51    
Precipitation  
Precipitation 0.04 in 0.12 in 1.07 in (1957)
Month to date precipitation 1.33  
Year to date precipitation 17.00  
Snow  
Snow 0.00 in 0.00 in 0.00 in ()
Month to date snowfall 0.0  
Since 1 July snowfall 4.7  
Snow Depth -    
Sea Level Pressure  
Sea Level Pressure 29.94 in    
Wind  
Wind Speed 6 mph (SW)    
Max Wind Speed 15 mph    
Max Gust Speed 23 mph    
Visibility 10 miles    
Events Rain    
T = Trace of Precipitation, MM = Missing Value Source: NWS Daily Summary

Daily Weather History Graph

Daily Weather History Graph

Search for Another Location

Airport or City:

Trip Planner

Search our weather history database for the weather conditions in past years. The results will help you decide how hot, cold, wet, or windy it might be!

Date:

Astronomy

May. 11, 2013 Rise Set
Actual Time 6:28 AM EDT 8:20 PM EDT
Civil Twilight 6:00 AM EDT 8:48 PM EDT
Nautical Twilight 5:27 AM EDT 9:21 PM EDT
Astronomical Twilight 4:51 AM EDT 9:57 PM EDT
Moon 7:36 AM EDT (5/11) 9:58 PM EDT (5/11)
Length of Visible Light 14h 47m
Length of Day
13h 52m
Waxing Crescent, 3% of the Moon is Illuminated
May 11
Waxing Crescent
May 18
First Quarter
May 25
Full
May 31
Last Quarter
Jun 8
New

Hourly Weather History & Observations

Time (EDT) Temp. Dew Point Humidity Pressure Visibility Wind Dir Wind Speed Gust Speed Precip Events Conditions
12:15 AM 68.0 °F 64.4 °F 88% 30.00 in 10.0 mi SSW 3.5 mph - N/A   Clear
12:55 AM 64.4 °F 64.4 °F 100% 30.00 in 10.0 mi SSW 3.5 mph - N/A   Clear
1:15 AM 64.4 °F 64.4 °F 100% 30.00 in 10.0 mi SW 4.6 mph - N/A   Clear
1:35 AM 64.4 °F 64.4 °F 100% 30.00 in 10.0 mi SW 4.6 mph - N/A   Scattered Clouds
1:55 AM 64.4 °F 64.4 °F 100% 29.99 in 10.0 mi SW 3.5 mph - N/A   Scattered Clouds
2:15 AM 64.4 °F 62.6 °F 94% 29.98 in 10.0 mi SW 4.6 mph - N/A   Clear
2:35 AM 64.4 °F 64.4 °F 100% 29.98 in 10.0 mi SW 3.5 mph - N/A   Clear
2:55 AM 64.4 °F 64.4 °F 100% 29.97 in 10.0 mi South 3.5 mph - N/A   Scattered Clouds
3:15 AM 64.4 °F 64.4 °F 100% 29.97 in 10.0 mi SSW 3.5 mph - N/A   Mostly Cloudy
3:35 AM 64.4 °F 64.4 °F 100% 29.97 in 10.0 mi SSW 6.9 mph - N/A   Scattered Clouds
3:55 AM 62.6 °F 62.6 °F 100% 29.97 in 10.0 mi SSW 4.6 mph - N/A   Clear
4:15 AM 62.6 °F 62.6 °F 100% 29.96 in 10.0 mi SSW 3.5 mph - N/A   Scattered Clouds
4:35 AM 62.6 °F 62.6 °F 100% 29.97 in 10.0 mi South 4.6 mph - N/A   Mostly Cloudy
4:55 AM 62.6 °F 62.6 °F 100% 29.96 in 10.0 mi Calm Calm - N/A   Mostly Cloudy
5:15 AM 62.6 °F 62.6 °F 100% 29.96 in 10.0 mi SSW 3.5 mph - N/A   Overcast
5:35 AM 62.6 °F 62.6 °F 100% 29.96 in 10.0 mi SSW 4.6 mph - N/A   Overcast
5:55 AM 62.6 °F 62.6 °F 100% 29.96 in 10.0 mi SSW 5.8 mph - N/A   Overcast
6:15 AM 62.6 °F 62.6 °F 100% 29.96 in 10.0 mi SSW 6.9 mph - N/A   Mostly Cloudy
6:35 AM 62.6 °F 62.6 °F 100% 29.97 in 10.0 mi SSW 5.8 mph - N/A   Scattered Clouds
6:55 AM 62.6 °F 62.6 °F 100% 29.96 in 10.0 mi SSW 4.6 mph - N/A   Overcast
7:15 AM 62.6 °F 62.6 °F 100% 29.96 in 10.0 mi SSW 3.5 mph - N/A   Mostly Cloudy
7:35 AM 62.6 °F 62.6 °F 100% 29.95 in 10.0 mi SSW 3.5 mph - N/A   Clear
7:55 AM 64.4 °F 62.6 °F 94% 29.96 in 10.0 mi SW 4.6 mph - N/A   Clear
8:15 AM 64.4 °F 62.6 °F 94% 29.96 in 10.0 mi SSW 4.6 mph - N/A   Clear
8:35 AM 66.2 °F 62.6 °F 88% 29.96 in 10.0 mi SSW 4.6 mph - N/A   Clear
8:55 AM 68.0 °F 62.6 °F 83% 29.97 in 10.0 mi SW 6.9 mph - N/A   Clear
9:15 AM 69.8 °F 62.6 °F 78% 29.96 in 10.0 mi SW 8.1 mph - N/A   Clear
9:35 AM 71.6 °F 60.8 °F 69% 29.97 in 10.0 mi SW 10.4 mph - N/A   Clear
9:55 AM 71.6 °F 62.6 °F 73% 29.96 in 10.0 mi SW 5.8 mph - N/A   Clear
10:15 AM 71.6 °F 62.6 °F 73% 29.96 in 10.0 mi WSW 10.4 mph - N/A   Clear
10:35 AM 73.4 °F 62.6 °F 69% 29.96 in 10.0 mi WSW 6.9 mph - N/A   Clear
10:55 AM 75.2 °F 60.8 °F 61% 29.96 in 10.0 mi SW 11.5 mph 16.1 mph N/A   Scattered Clouds
11:15 AM 77.0 °F 60.8 °F 57% 29.95 in 10.0 mi SW 9.2 mph - N/A   Clear
11:35 AM 77.0 °F 59.0 °F 54% 29.95 in 10.0 mi SW 9.2 mph - N/A   Clear
11:55 AM 77.0 °F 59.0 °F 54% 29.94 in 10.0 mi WSW 6.9 mph - N/A   Clear
12:15 PM 78.8 °F 59.0 °F 51% 29.93 in 10.0 mi WSW 8.1 mph - N/A   Clear
12:35 PM 78.8 °F 59.0 °F 51% 29.94 in 10.0 mi WSW 8.1 mph 16.1 mph N/A   Clear
12:55 PM 78.8 °F 59.0 °F 51% 29.94 in 10.0 mi WSW 9.2 mph 19.6 mph N/A   Scattered Clouds
1:15 PM 78.8 °F 59.0 °F 51% 29.94 in 10.0 mi SW 12.7 mph 17.3 mph N/A   Scattered Clouds
1:35 PM 78.8 °F 59.0 °F 51% 29.93 in 10.0 mi WSW 10.4 mph 23.0 mph N/A   Scattered Clouds
1:55 PM 78.8 °F 59.0 °F 51% 29.92 in 10.0 mi West 10.4 mph - N/A   Scattered Clouds
2:15 PM 78.8 °F 60.8 °F 54% 29.92 in 10.0 mi WSW 8.1 mph 18.4 mph N/A   Scattered Clouds
2:35 PM 77.0 °F 60.8 °F 57% 29.92 in 7.0 mi WSW 6.9 mph 16.1 mph N/A Rain Rain
2:55 PM 69.8 °F 64.4 °F 83% 29.94 in 10.0 mi WNW 15.0 mph 20.7 mph N/A Rain Rain
3:15 PM 68.0 °F 68.0 °F 100% 29.93 in 7.0 mi WNW 5.8 mph - 0.01 in Rain Rain
3:35 PM 69.8 °F 68.0 °F 94% 29.92 in 10.0 mi West 6.9 mph - 0.01 in   Scattered Clouds
3:55 PM 71.6 °F 68.0 °F 88% 29.91 in 10.0 mi WSW 6.9 mph - 0.01 in   Scattered Clouds
4:15 PM 73.4 °F 66.2 °F 78% 29.91 in 10.0 mi WSW 6.9 mph - N/A   Clear
4:35 PM 71.6 °F 64.4 °F 78% 29.90 in 10.0 mi SW 10.4 mph - N/A   Clear
4:55 PM 73.4 °F 64.4 °F 73% 29.90 in 10.0 mi SW 9.2 mph - N/A   Clear
5:15 PM 73.4 °F 64.4 °F 73% 29.89 in 10.0 mi SSW 10.4 mph 18.4 mph N/A   Clear
5:35 PM 73.4 °F 64.4 °F 73% 29.88 in 10.0 mi SW 11.5 mph 17.3 mph N/A   Clear
5:55 PM 73.4 °F 64.4 °F 73% 29.88 in 10.0 mi SW 9.2 mph 16.1 mph N/A   Clear
6:15 PM 75.2 °F 62.6 °F 65% 29.88 in 10.0 mi SW 10.4 mph 19.6 mph N/A   Clear
6:35 PM 73.4 °F 62.6 °F 69% 29.88 in 10.0 mi SW 11.5 mph 17.3 mph N/A   Clear
6:55 PM 73.4 °F 62.6 °F 69% 29.87 in 10.0 mi SW 11.5 mph 18.4 mph N/A   Clear
7:15 PM 71.6 °F 64.4 °F 78% 29.88 in 10.0 mi SW 9.2 mph - N/A   Clear
7:35 PM 71.6 °F 64.4 °F 78% 29.86 in 10.0 mi SW 8.1 mph - N/A   Clear
7:55 PM 71.6 °F 64.4 °F 78% 29.86 in 10.0 mi SW 8.1 mph - N/A   Clear
8:15 PM 69.8 °F 64.4 °F 83% 29.88 in 10.0 mi WSW 4.6 mph - N/A   Clear
8:35 PM 69.8 °F 64.4 °F 83% 29.89 in 10.0 mi WSW 6.9 mph - N/A   Clear
8:55 PM 69.8 °F 64.4 °F 83% 29.88 in 10.0 mi SW 3.5 mph - N/A   Scattered Clouds
9:15 PM 69.8 °F 68.0 °F 94% 29.89 in 10.0 mi SW 5.8 mph - N/A Rain Light Rain
9:35 PM 68.0 °F 68.0 °F 100% 29.90 in 10.0 mi WSW 6.9 mph - N/A   Scattered Clouds
9:55 PM 68.0 °F 68.0 °F 100% 29.92 in 10.0 mi West 11.5 mph 17.3 mph N/A   Light Drizzle
10:15 PM 66.2 °F 66.2 °F 100% 29.92 in 7.0 mi WNW 10.4 mph - 0.01 in Rain Light Rain
10:35 PM 64.4 °F 64.4 °F 100% 29.92 in 10.0 mi WSW 5.8 mph - 0.01 in Rain Light Rain
10:55 PM 64.4 °F 64.4 °F 100% 29.91 in 7.0 mi SSW 10.4 mph - 0.02 in Rain Rain
11:15 PM 64.4 °F 64.4 °F 100% 29.91 in 10.0 mi WSW 6.9 mph - N/A Rain Light Rain
11:35 PM 62.6 °F 62.6 °F 100% 29.91 in 10.0 mi SW 6.9 mph - 0.01 in   Overcast
11:55 PM 62.6 °F 62.6 °F 100% 29.91 in 10.0 mi SW 5.8 mph - 0.01 in   Overcast